Location: *
(32.8140°S, 174.6161°E)
Time: 15:10:21
(UTC+00:00)

Cosmos 1356 Rocket - Pass Details

Date: 10 December 2019
Orbit: 542 x 599 km, 81.2° (Epoch: 25 January)

Event Time Altitude Azimuth Distance (km) Brightness Sun altitude
Exits shadow 15:05:13 34° 247° (WSW) 911 4.2 -20.9°
Drops below altitude 10° 15:08:37 10° 191° (SSW) 1,837 6.4 -20.5°
Sets 15:10:56 0° 182° (S) 2,741 7.6 -20.1°
